Location: Passau
(48.5721°N, 13.4363°E)
Time: 12:46:43
(UTC+02:00)

ISS - Pass Details

Date: 01 October 2020
Orbit: 418 x 420 km, 51.6° (Epoch: 21 October)

Event Time Altitude Azimuth Distance (km) Brightness Sun altitude
Rises 21:06:38 0° 290° (WNW) 2,370 1.5 -23.8°
Reaches altitude 10° 21:08:49 10° 283° (WNW) 1,503 0.1 -24.2°
Enters shadow 21:10:57 30° 255° (WSW) 782 -2.0 -24.5°
